CAPE
31 433 179 129 32 0 0 0 0 0 0 0 0 0 0 0 0 0 0 0 0 0 0 0 0 0 0 0 4 8 13 25 32 39 48 46 61 56 31 19 23 39 36 25 24 41 36 13 18
0 20 0 44 0 0 0 0 0 0 0 0 0 0 0 0 0 0 0 0 0 0 0 0 0 0 0 0 5 12 21 37 32 32 32 29 19 52 55 38 39 44 42 33 14 26 33 43 16
9 0 0 0 0 0 0 0 0 0 0 0 0 0 0 0 0 0 0 0 0 0 0 0 0 0 0 1 6 13 13 15 15 7 15 9 9 34 28 15 22 13 21 27 31 26 35 37 39
0 0 0 0 0 0 0 0 0 0 0 0 0 0 0 0 0 0 0 0 0 0 0 0 0 0 0 0 0 2 6 6 6 7 8 9 13 3 7 11 6 10 11 12 31 24 26 31 28
0 0 0 0 0 0 0 0 0 0 0 0 0 0 0 0 0 0 0 0 0 0 0 0 0 0 0 0 0 0 4 3 7 8 7 6 12 10 11 8 9 2 29 18 8 12 51 39 32
0 0 0 0 0 0 0 0 0 0 0 0 0 0 0 0 0 0 0 0 0 0 0 0 0 0 0 0 0 1 1 2 4 4 5 5 6 5 7 9 2 4 37 38 13 7 17 36 35
0 0 0 0 0 0 0 0 0 0 0 0 0 0 0 0 0 0 0 0 0 0 0 0 0 0 0 0 0 0 1 4 5 2 3 4 2 0 1 5 4 6 17 28 27 17 14 17 21
0 0 0 0 0 0 0 0 0 0 0 0 0 0 0 0 0 0 0 0 0 0 0 0 0 0 0 0 0 0 0 0 0 0 0 0 0 0 0 5 10 14 14 8 14 25 24 12 8
0 0 0 0 0 0 0 0 0 0 0 0 0 0 0 0 0 0 0 0 0 0 0 0 0 0 0 0 0 0 0 0 0 0 0 0 0 0 0 3 10 13 14 8 10 6 20 29 2
0 0 0 0 0 0 0 0 0 0 0 0 0 0 0 0 0 0 0 0 0 0 0 0 0 0 0 0 0 0 0 0 0 0 0 0 0 0 1 0 3 2 10 18 15 18 15 1 0
0 0 0 0 0 0 0 0 0 0 0 0 0 0 0 0 0 0 0 0 0 0 0 0 0 0 0 0 0 0 0 0 0 0 0 0 0 0 0 0 0 0 0 0 0 0 0 0 0
0 0 0 0 0 0 0 0 0 0 0 0 0 0 0 0 0 0 0 0 0 0 0 0 0 0 0 0 0 0 0 0 0 0 0 0 0 0 0 0 0 0 0 0 9 0 0 0 0
0 0 0 0 0 0 0 0 0 0 0 0 0 0 0 0 0 0 0 0 0 0 0 0 0 0 0 0 0 0 0 0 0 0 0 0 0 0 0 0 0 0 0 0 0 1 3 2 0
0 0 0 0 0 0 0 0 0 0 0 0 0 0 0 0 0 0 0 0 0 0 0 0 0 0 0 0 0 0 0 0 0 0 0 0 0 0 0 0 0 0 0 0 1 0 6 8 2
0 0 0 0 0 0 0 0 0 0 0 0 0 0 0 0 0 0 0 0 0 0 0 0 0 0 0 0 0 0 0 0 0 0 0 0 0 0 0 0 0 0 0 0 0 0 10 1 1
0 0 0 0 0 0 0 0 0 0 0 0 0 0 0 0 0 0 0 0 0 0 0 0 0 0 0 0 0 0 0 0 0 0 0 0 0 0 0 0 0 0 0 0 0 3 4 6 2
0 0 0 0 0 0 0 0 0 0 0 0 0 0 0 0 0 0 0 0 0 0 0 0 0 0 0 0 0 0 0 0 0 0 0 0 0 0 0 0 0 0 0 0 4 3 1 1 1
0 0 0 0 0 0 0 0 0 0 0 0 0 0 0 0 0 0 0 0 0 0 0 0 0 0 0 0 0 0 0 0 0 0 0 0 0 0 0 0 0 0 0 0 4 5 3 1 1
0 0 0 0 0 0 0 0 0 0 0 0 0 0 0 0 0 0 0 0 0 0 0 0 0 0 0 0 0 0 0 0 0 0 0 0 0 0 0 0 0 0 1 1 5 5 0 0 0
0 0 0 0 0 0 0 0 0 0 0 0 0 0 0 0 0 0 0 0 0 0 0 0 0 0 0 0 0 0 0 0 0 0 0 0 0 0 0 0 0 0 0 8 1 3 0 0 4
0 0 0 0 0 0 0 0 0 0 0 0 0 0 0 0 0 0 0 0 0 0 0 0 0 0 0 0 0 0 0 0 0 0 0 0 0 0 0 1 10 10 6 0 0 1 1 1 1
0 0 0 0 0 0 0 0 0 0 0 0 0 0 0 0 0 0 0 0 0 0 0 0 0 0 0 0 0 0 0 0 0 0 0 0 0 0 0 3 6 2 1 1 1 0 0 0 2
0 0 0 0 0 0 0 0 0 0 0 0 0 0 0 0 0 0 0 0 0 0 0 0 0 0 0 0 0 0 0 0 0 0 0 0 0 0 0 0 2 7 5 0 1 1 1 1 6
0 0 0 0 0 0 0 0 0 0 0 0 0 0 0 0 0 0 0 0 0 0 0 0 0 0 0 0 0 0 0 0 0 0 0 0 0 0 0 0 0 0 0 1 3 1 2 8 4
0 0 0 0 0 0 0 0 0 0 0 0 0 0 0 0 0 0 0 0 0 0 0 0 0 0 0 0 0 0 0 0 0 0 0 0 0 0 0 0 0 0 0 0 0 0 1 2 6
0 0 0 0 0 0 0 0 0 0 0 0 0 0 0 0 0 0 0 0 0 0 0 0 0 0 0 0 0 0 0 0 0 0 0 0 0 0 0 0 0 0 0 0 0 0 0 0 0
0 0 0 0 0 0 0 0 0 0 0 0 0 0 0 0 0 0 0 0 0 0 0 0 0 0 0 0 0 0 0 0 0 0 0 0 0 0 0 0 0 0 0 0 0 0 0 1 0
0 0 0 0 0 0 0 0 0 0 0 0 0 0 0 0 0 0 0 0 0 0 0 0 0 0 0 0 0 0 0 0 0 0 0 0 0 0 0 0 0 0 1 0 0 0 0 0 1
0 0 0 0 0 0 0 0 0 0 0 0 0 0 0 0 0 0 0 0 0 0 0 0 0 0 0 0 0 0 0 0 0 0 0 0 0 0 0 0 0 0 0 0 0 0 0 2 0
0 0 0 0 0 0 0 0 0 0 0 0 0 0 0 0 0 0 0 0 0 0 0 0 0 0 0 0 0 0 0 0 0 0 0 0 0 0 0 0 0 0 0 0 0 0 0 0 0
CIN
-351 -253 -295 -212 -53 -0 -0 -0 -0 -0 -0 -0 -0 -0 -0 -0 -0 -0 -0 -0 -0 -0 -0 -0 -0 -0 -0 -0 -1 -0 -1 -1 -1 -1 -1 -0 -1 -0 -0 -1 -1 -0 -1 -1 -1 -1 -1 -1 -1
-0 -205 -0 -88 -0 -0 -0 -0 -0 -0 -0 -0 -0 -0 -0 -0 -0 -0 -0 -0 -0 -0 -0 -0 -0 -0 -0 -0 -1 -1 -1 -1 -1 -1 -1 -1 -1 -0 -0 -1 -1 -0 -0 -2 -2 -0 -0 -1 -1
-216 -0 -0 -0 -0 -0 -0 -0 -0 -0 -0 -0 -0 -0 -0 -0 -0 -0 -0 -0 -0 -0 -0 -0 -0 -0 -0 -0 -1 -1 -0 -1 -1 -1 -1 -1 -1 -1 -1 -0 -0 -0 -0 -1 -1 -1 -1 -1 -0
-0 -0 -0 -0 -0 -0 -0 -0 -0 -0 -0 -0 -0 -0 -0 -0 -0 -0 -0 -0 -0 -0 -0 -0 -0 -0 -0 -0 -0 -1 -1 -1 -0 -0 -0 -1 -1 -1 -0 -0 -1 -1 -0 -1 -0 -0 -1 -1 -1
-0 -0 -0 -0 -0 -0 -0 -0 -0 -0 -0 -0 -0 -0 -0 -0 -0 -0 -0 -0 -0 -0 -0 -0 -0 -0 -0 -0 -0 -0 -1 -1 -1 -1 -0 -1 -1 -1 -0 -0 -1 -0 -1 -1 -0 -1 -0 -1 -1
-0 -0 -0 -0 -0 -0 -0 -0 -0 -0 -0 -0 -0 -0 -0 -0 -0 -0 -0 -0 -0 -0 -0 -0 -0 -0 -0 -0 -0 -0 -1 -0 -1 -1 -0 -0 -1 -0 -0 -1 -0 -0 -0 -0 -1 -1 -1 -0 -0
-0 -0 -0 -0 -0 -0 -0 -0 -0 -0 -0 -0 -0 -0 -0 -0 -0 -0 -0 -0 -0 -0 -0 -0 -0 -0 -0 -0 -0 -0 -0 -1 -0 -0 -1 -1 -1 -0 -1 -1 -0 -1 -1 -1 -1 -1 -0 -0 -0
-0 -0 -0 -0 -0 -0 -0 -0 -0 -0 -0 -0 -0 -0 -0 -0 -0 -0 -0 -0 -0 -0 -0 -0 -0 -0 -0 -0 -0 -0 -0 -0 -0 -0 -0 -0 -0 -0 -0 -0 -1 -0 -0 -1 -2 -1 -0 -0 -0
-0 -0 -0 -0 -0 -0 -0 -0 -0 -0 -0 -0 -0 -0 -0 -0 -0 -0 -0 -0 -0 -0 -0 -0 -0 -0 -0 -0 -0 -0 -0 -0 -0 -0 -0 -0 -0 -0 -0 -1 -0 -1 -1 -1 -0 -1 -1 -1 -0
-0 -0 -0 -0 -0 -0 -0 -0 -0 -0 -0 -0 -0 -0 -0 -0 -0 -0 -0 -0 -0 -0 -0 -0 -0 -0 -0 -0 -0 -0 -0 -0 -0 -0 -0 -0 -0 -0 -1 -0 -0 -1 -0 -0 -0 -0 -0 -0 -0
-0 -0 -0 -0 -0 -0 -0 -0 -0 -0 -0 -0 -0 -0 -0 -0 -0 -0 -0 -0 -0 -0 -0 -0 -0 -0 -0 -0 -0 -0 -0 -0 -0 -0 -0 -0 -0 -0 -0 -0 -0 -0 -0 -0 -0 -0 -0 -0 -0
-0 -0 -0 -0 -0 -0 -0 -0 -0 -0 -0 -0 -0 -0 -0 -0 -0 -0 -0 -0 -0 -0 -0 -0 -0 -0 -0 -0 -0 -0 -0 -0 -0 -0 -0 -0 -0 -0 -0 -0 -0 -0 -0 -0 -3 -0 -0 -0 -0
-0 -0 -0 -0 -0 -0 -0 -0 -0 -0 -0 -0 -0 -0 -0 -0 -0 -0 -0 -0 -0 -0 -0 -0 -0 -0 -0 -0 -0 -0 -0 -0 -0 -0 -0 -0 -0 -0 -0 -0 -0 -0 -0 -0 -0 -5 -5 -7 -5
-0 -0 -0 -0 -0 -0 -0 -0 -0 -0 -0 -0 -0 -0 -0 -0 -0 -0 -0 -0 -0 -0 -0 -0 -0 -0 -0 -0 -0 -0 -0 -0 -0 -0 -0 -0 -0 -0 -0 -0 -0 -0 -0 -0 -1 -2 -4 -2 -8
-0 -0 -0 -0 -0 -0 -0 -0 -0 -0 -0 -0 -0 -0 -0 -0 -0 -0 -0 -0 -0 -0 -0 -0 -0 -0 -0 -0 -0 -0 -0 -0 -0 -0 -0 -0 -0 -0 -0 -0 -0 -0 -0 -0 -0 -0 -3 -7 -4
-0 -0 -0 -0 -0 -0 -0 -0 -0 -0 -0 -0 -0 -0 -0 -0 -0 -0 -0 -0 -0 -0 -0 -0 -0 -0 -0 -0 -0 -0 -0 -0 -0 -0 -0 -0 -0 -0 -0 -0 -0 -0 -0 -0 -2 -1 -0 -5 -4
-0 -0 -0 -0 -0 -0 -0 -0 -0 -0 -0 -0 -0 -0 -0 -0 -0 -0 -0 -0 -0 -0 -0 -0 -0 -0 -0 -0 -0 -0 -0 -0 -0 -0 -0 -0 -0 -0 -0 -0 -0 -0 -0 -2 -6 -1 -0 -3 -6
-0 -0 -0 -0 -0 -0 -0 -0 -0 -0 -0 -0 -0 -0 -0 -0 -0 -0 -0 -0 -0 -0 -0 -0 -0 -0 -0 -0 -0 -0 -0 -0 -0 -0 -0 -0 -0 -0 -0 -0 -0 -0 -0 -1 -1 -5 -4 -0 -0
-0 -0 -0 -0 -0 -0 -0 -0 -0 -0 -0 -0 -0 -0 -0 -0 -0 -0 -0 -0 -0 -0 -0 -0 -0 -0 -0 -0 -0 -0 -0 -0 -0 -0 -0 -0 -0 -0 -0 -0 -0 -0 -0 -0 -0 -2 -0 -0 -0
-0 -0 -0 -0 -0 -0 -0 -0 -0 -0 -0 -0 -0 -0 -0 -0 -0 -0 -0 -0 -0 -0 -0 -0 -0 -0 -0 -0 -0 -0 -0 -0 -0 -0 -0 -0 -0 -0 -0 -0 -0 -0 -1 -0 -0 -3 -2 -0 -0
-0 -0 -0 -0 -0 -0 -0 -0 -0 -0 -0 -0 -0 -0 -0 -0 -0 -0 -0 -0 -0 -0 -0 -0 -0 -0 -0 -0 -0 -0 -0 -0 -0 -0 -0 -0 -0 -0 -0 -2 -1 -1 -0 -1 -1 -5 -0 -0 -0
-0 -0 -0 -0 -0 -0 -0 -0 -0 -0 -0 -0 -0 -0 -0 -0 -0 -0 -0 -0 -0 -0 -0 -0 -0 -0 -0 -0 -0 -0 -0 -0 -0 -0 -0 -0 -0 -0 -0 -13 -0 -3 -5 -0 -0 -0 -1 -0 -0
-0 -0 -0 -0 -0 -0 -0 -0 -0 -0 -0 -0 -0 -0 -0 -0 -0 -0 -0 -0 -0 -0 -0 -0 -0 -0 -0 -0 -0 -0 -0 -0 -0 -0 -0 -0 -0 -0 -0 -4 -19 -3 -2 -0 -0 -0 -0 -1 -0
-0 -0 -0 -0 -0 -0 -0 -0 -0 -0 -0 -0 -0 -0 -0 -0 -0 -0 -0 -0 -0 -0 -0 -0 -0 -0 -0 -0 -0 -0 -0 -0 -0 -0 -0 -0 -0 -0 -0 -0 -8 -0 -0 -1 -2 -3 -2 -5 -2
-0 -0 -0 -0 -0 -0 -0 -0 -0 -0 -0 -0 -0 -0 -0 -0 -0 -0 -0 -0 -0 -0 -0 -0 -0 -0 -0 -0 -0 -0 -0 -0 -0 -0 -0 -0 -0 -0 -0 -0 -0 -0 -0 -0 -0 -0 -1 -1 -2
-0 -0 -0 -0 -0 -0 -0 -0 -0 -0 -0 -0 -0 -0 -0 -0 -0 -0 -0 -0 -0 -0 -0 -0 -0 -0 -0 -0 -0 -0 -0 -0 -0 -0 -0 -0 -0 -0 -0 -0 -0 -0 -0 -0 -0 -0 -0 -0 -0
-0 -0 -0 -0 -0 -0 -0 -0 -0 -0 -0 -0 -0 -0 -0 -0 -0 -0 -0 -0 -0 -0 -0 -0 -0 -0 -0 -0 -0 -0 -0 -0 -0 -0 -0 -0 -0 -0 -0 -0 -0 -0 -0 -0 -0 -0 -0 -16 -0
-0 -0 -0 -0 -0 -0 -0 -0 -0 -0 -0 -0 -0 -0 -0 -0 -0 -0 -0 -0 -0 -0 -0 -0 -0 -0 -0 -0 -0 -0 -0 -0 -0 -0 -0 -0 -0 -0 -0 -0 -0 -0 -22 -0 -0 -0 -0 -15 -20
-0 -0 -0 -0 -0 -0 -0 -0 -0 -0 -0 -0 -0 -0 -0 -0 -0 -0 -0 -0 -0 -0 -0 -0 -0 -0 -0 -0 -0 -0 -0 -0 -0 -0 -0 -0 -0 -0 -0 -0 -0 -0 -0 -0 -4 -0 -0 -9 -7
-0 -0 -0 -0 -0 -0 -0 -0 -0 -0 -0 -0 -0 -0 -0 -0 -0 -0 -0 -0 -0 -0 -0 -0 -0 -0 -0 -0 -0 -0 -0 -0 -0 -0 -0 -0 -0 -0 -0 -0 -0 -0 -1 -0 -0 -1 -0 -0 -0
Wind_Speed
17 14 14 14 14 16 17 17 17 17 18 19 20 18 19 20 22 22 16 21 24 23 26 29 31 33 35 37 38 38 38 37 36 36 35 36 36 36 36 37 37 37 38 38 37 36 37 37 36
13 13 14 14 15 16 18 16 16 17 13 15 20 20 22 21 19 17 19 27 23 24 27 30 32 35 37 38 38 38 37 36 36 35 37 37 36 37 37 37 37 37 37 38 39 39 39 38 38
13 15 14 15 16 18 18 16 15 15 15 18 19 21 20 20 19 19 23 21 23 26 29 32 34 36 37 37 38 37 36 35 35 36 36 36 37 37 38 38 39 38 38 38 38 38 39 39 39
13 14 16 17 18 18 17 13 14 14 18 19 18 21 19 20 19 21 21 23 25 27 29 32 34 36 36 37 37 34 35 35 36 35 35 37 37 37 38 38 38 38 38 38 38 38 38 39 40
14 14 16 17 17 17 16 13 14 16 18 20 18 18 18 19 20 21 23 25 27 28 31 33 34 35 36 36 34 34 33 33 33 33 35 35 35 36 36 37 37 37 38 39 39 38 38 39 40
14 14 16 15 15 16 16 14 15 17 18 19 18 18 18 20 21 22 24 27 27 29 30 32 33 34 35 34 32 31 31 31 31 32 34 35 35 36 37 37 36 36 37 38 38 39 39 37 38
14 15 16 16 14 14 13 15 16 16 17 19 15 19 17 20 20 22 25 27 28 29 30 30 30 31 32 31 31 30 30 31 31 32 34 36 36 38 39 37 36 37 37 37 38 38 40 40 39
15 16 16 15 12 14 12 14 16 18 18 16 16 17 18 17 20 23 28 30 30 29 29 28 28 29 30 28 31 31 31 31 32 32 33 36 37 37 37 36 37 38 38 37 39 38 38 40 42
14 16 16 14 12 13 11 13 17 17 16 18 17 17 16 18 21 27 31 31 30 28 28 27 28 29 29 29 31 31 31 31 31 32 35 36 36 36 36 36 39 40 40 39 38 39 39 39 40
16 16 15 14 13 13 13 13 14 16 17 18 18 18 18 21 26 30 30 30 29 28 27 28 28 29 31 30 31 31 30 31 32 35 35 35 35 35 35 36 39 40 40 39 41 40 40 40 39
17 16 16 17 16 15 14 15 15 14 17 15 14 16 18 24 27 29 29 28 28 26 27 28 29 30 31 31 30 31 31 32 33 35 36 36 37 37 37 37 37 38 38 39 39 39 40 40 40
18 18 16 16 17 16 15 15 15 15 17 15 16 16 19 24 29 28 29 28 27 26 26 28 29 31 31 30 30 32 31 33 34 35 36 37 39 39 39 38 39 39 38 40 37 40 40 41 41
19 17 18 17 17 17 16 15 15 16 16 16 17 17 21 26 29 27 27 25 24 25 27 28 29 30 31 31 31 32 33 34 33 34 36 37 39 39 39 39 39 39 39 40 41 40 41 41 41
18 19 18 16 16 16 16 16 15 13 15 16 16 18 22 27 29 27 26 24 23 25 27 27 28 30 30 30 30 31 33 32 32 32 33 36 37 38 38 39 39 39 39 40 40 41 41 41 41
19 18 17 15 14 15 16 14 13 13 15 16 16 18 23 28 29 26 23 22 22 24 25 28 28 30 29 30 29 28 29 30 31 31 32 34 36 37 38 39 39 39 39 40 40 41 40 41 40
16 17 18 14 13 13 16 11 12 12 14 15 16 19 23 28 27 22 21 21 23 25 27 28 27 29 29 29 28 26 25 27 28 30 29 30 34 36 37 37 38 37 38 39 39 40 41 40 40
16 17 17 17 10 13 12 12 11 11 13 14 16 19 22 27 24 20 21 21 23 25 27 27 27 28 29 29 27 25 25 27 27 26 25 28 33 34 36 34 35 36 36 35 35 36 37 39 37
16 17 17 16 12 9 8 5 12 10 11 13 16 18 22 26 21 19 20 20 22 25 25 25 26 27 28 27 27 27 28 30 29 27 28 30 33 34 33 31 30 33 34 31 33 34 33 34 35
17 17 17 15 13 10 6 7 8 8 10 14 15 17 21 23 17 18 20 21 22 23 24 24 26 27 27 27 28 28 30 30 30 30 31 32 33 35 33 29 29 29 26 23 26 28 30 32 33
16 17 17 15 14 11 12 7 9 8 10 12 14 16 19 19 16 17 19 19 20 21 22 23 25 27 28 28 27 25 27 26 26 31 34 33 33 34 32 29 26 18 16 16 17 21 26 29 30
18 17 18 14 14 11 10 12 15 13 14 15 15 16 18 15 15 17 16 18 19 21 21 21 24 25 27 27 26 27 26 26 29 34 35 33 31 32 29 27 27 26 21 21 19 15 12 28 30
18 17 18 16 15 13 17 13 15 14 12 15 14 16 17 14 15 15 15 17 18 19 19 21 23 24 25 25 26 29 27 29 30 32 33 32 30 30 28 28 25 28 25 22 19 14 10 6 25
17 17 18 16 15 15 15 15 15 16 13 12 13 15 16 13 14 14 15 17 18 19 19 20 22 23 24 24 24 27 27 27 27 32 34 33 30 28 28 31 26 26 24 18 17 11 9 7 3
17 19 20 18 16 16 16 15 14 16 18 16 13 15 15 13 14 14 14 16 18 18 19 21 21 22 24 24 24 25 26 26 28 32 34 33 31 28 26 31 28 27 21 20 18 15 11 6 10
18 20 21 22 18 15 16 14 11 14 16 17 15 16 14 13 13 14 15 16 17 17 19 20 21 23 23 24 24 25 25 26 27 30 30 31 31 28 26 24 30 32 26 22 20 20 18 16 8
17 20 21 23 19 10 14 13 15 16 17 18 17 17 14 13 13 14 15 16 16 16 18 19 21 22 23 23 24 26 25 26 26 27 28 29 29 27 24 24 22 22 29 31 26 20 19 17 4
16 18 18 19 19 15 12 11 13 16 15 15 16 16 14 14 14 14 15 15 15 15 16 17 19 20 22 21 21 23 24 25 27 27 27 27 27 26 25 24 22 22 23 29 30 25 19 16 14
14 16 18 19 20 19 11 9 12 13 12 13 14 14 13 14 14 14 14 14 14 14 15 16 17 18 19 21 21 21 22 23 24 25 25 26 25 25 27 27 26 23 21 22 27 28 26 24 19
14 14 17 18 17 17 15 10 13 14 13 13 13 13 13 14 14 14 14 14 14 14 14 14 16 17 19 20 21 21 21 22 22 24 23 23 24 24 25 26 26 26 23 20 20 22 26 29 30
11 11 13 15 15 15 15 10 14 12 13 13 14 14 13 14 14 14 14 13 14 14 15 15 16 17 18 18 19 21 21 22 22 22 21 22 22 24 24 25 26 24 24 22 20 19 21 20 18
Wind_Direction
341 333 351 360 355 351 345 345 346 349 346 358 3 1 360 352 338 332 12 359 351 351 346 342 339 336 333 331 330 330 329 328 330 330 329 327 325 323 320 317 315 311 306 304 303 301 298 294 295
31 12 349 5 348 344 342 348 349 350 13 20 0 356 349 347 4 3 355 344 356 353 348 344 340 336 333 332 331 330 330 332 332 331 329 328 326 324 323 320 317 315 312 306 301 299 296 294 291
18 356 352 349 345 339 340 353 2 11 12 354 355 1 356 352 2 0 354 3 358 352 348 343 341 339 337 336 334 333 334 334 333 332 332 329 327 326 323 320 316 314 313 309 306 301 297 293 292
44 42 356 342 341 347 354 19 22 17 4 1 7 356 9 7 0 357 4 1 356 355 352 347 344 342 341 339 338 338 336 335 333 333 334 332 330 328 325 322 318 316 314 309 309 304 299 295 292
94 39 353 352 356 359 7 19 9 5 2 355 360 357 4 6 7 8 1 357 353 353 351 349 346 345 344 342 342 341 342 341 342 340 337 337 336 333 330 327 323 319 315 311 306 307 303 298 293
59 48 4 4 3 4 14 20 14 9 8 8 9 8 5 9 9 4 2 357 357 353 352 352 351 349 348 348 349 349 346 345 344 342 340 336 335 333 329 326 325 323 321 317 312 304 302 303 299
54 30 10 13 17 13 26 26 14 13 11 4 24 3 12 9 11 7 2 358 356 356 355 356 357 357 357 357 355 354 352 349 345 342 338 335 333 329 327 325 325 322 319 318 315 312 302 298 298
66 47 21 24 28 17 37 20 18 10 7 29 26 5 3 13 9 5 359 356 356 358 360 2 2 2 2 1 354 352 350 349 346 346 344 338 334 332 330 328 324 321 320 318 315 312 309 300 295
73 29 23 32 42 32 49 24 14 22 20 16 19 19 24 16 9 359 354 354 355 359 1 4 3 2 360 358 355 351 352 352 352 348 342 341 340 337 334 331 325 319 317 316 316 313 310 306 302
51 36 40 44 48 42 45 34 34 26 25 16 17 24 23 12 3 357 356 357 359 360 2 2 2 358 355 358 353 354 355 353 351 347 346 345 343 341 337 333 328 324 320 316 313 312 310 307 304
45 40 46 36 44 53 43 37 36 38 15 22 25 25 19 8 4 0 0 0 0 2 3 3 358 355 354 352 355 354 355 352 349 346 345 345 342 339 337 334 332 329 325 322 317 313 311 307 304
41 37 44 51 50 44 45 46 36 30 24 41 34 30 21 10 3 2 1 2 3 5 5 359 358 352 354 357 357 355 355 351 350 348 348 345 342 339 337 334 331 329 326 322 319 314 311 307 303
37 48 44 51 47 41 48 39 35 35 40 37 33 32 17 8 5 5 5 7 10 7 358 2 354 352 357 358 358 358 357 353 353 353 352 350 346 343 340 337 333 330 325 321 317 314 310 306 304
50 53 55 50 46 44 38 38 40 45 43 35 38 25 14 8 6 6 9 15 15 7 5 2 354 355 1 2 2 2 359 1 1 2 360 356 352 347 344 340 336 332 328 324 320 315 310 306 303
60 51 50 51 48 36 42 39 43 52 45 37 32 23 13 8 9 12 21 26 23 14 12 356 0 0 6 6 5 7 8 9 9 7 4 360 357 352 347 342 337 334 331 326 321 317 312 307 302
56 54 37 47 50 47 35 48 52 57 42 34 27 19 13 10 14 25 31 30 20 13 7 359 5 6 9 8 9 13 14 11 8 5 4 3 358 355 350 344 340 337 334 329 324 319 314 309 304
55 41 37 35 64 46 51 48 56 57 41 33 25 19 15 13 19 32 29 27 21 17 8 7 11 12 11 11 14 16 15 10 6 6 5 1 358 355 351 350 346 342 339 336 332 326 320 312 306
48 39 37 35 59 68 60 69 45 53 43 33 24 21 17 14 25 33 29 29 26 16 17 19 18 17 14 17 18 16 15 11 11 12 9 4 1 359 358 358 355 350 345 341 338 330 326 317 310
47 41 35 43 60 65 77 57 49 59 42 28 26 21 17 17 34 35 29 28 24 23 22 25 22 19 19 20 18 17 14 16 17 15 11 9 6 4 3 6 4 2 4 1 354 344 334 323 316
47 39 38 48 55 68 53 49 43 54 41 32 28 24 20 27 35 35 32 35 35 32 31 30 26 23 21 22 23 25 20 23 22 17 13 12 12 10 9 13 11 14 16 17 18 10 351 335 325
43 42 39 47 55 68 54 54 47 52 41 34 32 30 27 37 39 39 48 44 39 35 36 36 30 27 25 26 28 26 28 27 22 16 15 17 18 16 18 23 25 27 29 30 28 29 28 348 326
42 51 43 49 55 58 51 50 52 49 44 33 34 29 31 43 44 50 57 48 46 43 44 40 34 33 32 33 33 29 30 27 23 20 19 22 24 25 26 27 32 30 35 39 42 46 41 38 309
51 51 46 53 58 53 57 55 54 45 36 30 33 32 35 53 54 60 57 52 50 48 49 44 42 40 39 40 40 36 35 33 30 26 25 26 29 33 27 26 35 37 38 42 45 47 54 63 91
58 50 46 56 58 56 55 57 52 46 38 38 39 39 43 64 62 67 65 58 54 54 51 46 47 44 43 43 43 42 41 38 36 31 30 30 34 37 37 23 28 33 45 46 50 55 62 69 82
51 45 45 48 55 59 58 62 52 47 45 43 49 47 56 72 71 70 63 60 59 59 55 51 49 46 46 45 45 45 45 42 39 36 36 35 36 39 39 39 26 21 33 40 49 54 63 70 95
50 50 49 42 47 57 61 63 55 50 53 52 53 52 67 76 77 74 69 67 63 65 60 56 52 49 50 49 47 45 45 44 43 40 40 40 41 42 42 42 46 41 23 18 29 48 57 64 97
55 50 59 54 55 59 71 68 58 56 56 52 52 56 67 76 81 81 76 75 70 74 68 63 56 55 52 53 52 49 48 47 45 45 46 45 45 46 46 46 46 47 46 29 23 33 47 60 67
55 65 50 52 50 50 64 66 58 59 58 58 55 60 70 75 83 87 82 82 83 84 78 71 65 63 58 56 54 52 51 51 50 49 50 49 49 50 48 47 49 51 52 52 45 34 38 41 51
47 51 52 55 57 54 52 65 65 60 64 63 62 67 75 79 85 90 90 88 89 87 85 80 70 68 62 60 57 55 54 54 54 52 52 52 51 52 51 49 50 51 54 57 59 58 48 32 23
41 53 59 55 57 57 53 62 65 66 64 69 65 73 82 85 91 98 99 92 88 86 82 79 73 69 66 64 61 57 55 56 56 54 54 53 53 53 53 51 52 53 55 57 59 62 58 58 60